Home   Weather   Amsterdam   Past weeks

Flag for Netherlands Past Weather in Amsterdam, Netherlands — Yesterday and Last 2 Weeks

Now
48 °F

Passing clouds.


Feels Like: 43 °F
Forecast: 37 / 54 °F
Wind: 13 mph from Northwest

Location: Amsterdam Schiphol Airport

Current Time: Apr 28, 2017 at 12:19:10 pm

Latest Report: Apr 28, 2017 at 11:55 am


Visibility: N/A

Pressure: 29.92 "Hg

Humidity: 71%

Dew Point: 39 °F

Location of AmsterdamLocation

Past Weather in Amsterdam — Graph

°F

Amsterdam Temperature Yesterday

Maximum temperature yesterday: 50 °F (at 1:25 pm)
Minimum temperature yesterday: 34 °F (at 2:55 am)
Average temperature yesterday: 43 °F

High & Low Weather Summary for the Past Weeks

 TemperatureHumidityPressure
High55 °F (Apr 14, 2:55 pm)100% (Apr 14, 1:55 am)30.63 "Hg (Apr 14, 1:55 am)
Low32 °F (Apr 20, 3:55 am)39% (Apr 19, 9:55 am)29.68 "Hg (Apr 25, 2:25 am)
Average46 °F73%30.15 "Hg
* Reported Apr 13 10:25 am — Apr 28 10:55 am, Amsterdam, Weather by CustomWeather, © 2017

Note: Actual official high and low records may vary slightly from our data, if they occured in-between our weather recording intervals... More about our weather records

Advertising

Amsterdam Weather History for the Previous 24 Hours

Scroll right to see more
 ConditionsComfort  
Time TempWeatherWind HumidityBarometerVisibility
10:55 am
Fri, Apr 28
46 °FPassing clouds.5 mph76%29.92 "HgN/A
10:25 am45 °FSprinkles. Passing clouds.10 mph87%29.92 "HgN/A
9:55 am50 °FSprinkles. Scattered clouds.5 mph71%29.92 "HgN/A
9:25 am48 °FPassing clouds.5 mph82%29.92 "HgN/A
8:55 am46 °FPassing clouds.3 mph82%29.92 "HgN/A
8:25 am46 °FScattered showers. Scattered clouds.3 mph87%29.92 "HgN/A
7:55 am45 °FScattered showers. Scattered clouds.2 mph93%29.92 "HgN/A
7:25 am45 °FSprinkles. Passing clouds.No wind93%29.92 "HgN/A
6:55 am45 °FSprinkles. Scattered clouds.3 mph93%29.92 "HgN/A
6:25 am43 °FBroken clouds.2 mph100%29.92 "HgN/A
5:55 am43 °FScattered showers. Passing clouds.5 mph100%29.92 "HgN/A
5:25 am39 °FPassing clouds.6 mph100%29.92 "HgN/A
4:55 am41 °FPassing clouds.2 mph93%29.92 "HgN/A
4:25 am43 °FScattered showers. Passing clouds.7 mph93%29.92 "HgN/A
3:55 am45 °FSprinkles. Partly cloudy.7 mph87%29.92 "Hg5 mi
3:25 am45 °FLight rain. Partly cloudy.8 mph93%29.92 "Hg5 mi
2:55 am45 °FPartly cloudy.6 mph93%29.92 "HgN/A
2:25 am45 °FPartly cloudy.8 mph93%29.92 "HgN/A
1:55 am45 °FPartly cloudy.9 mph87%29.92 "HgN/A
1:25 am45 °FPartly cloudy.8 mph93%29.95 "HgN/A
12:55 am45 °FPartly cloudy.7 mph93%29.95 "HgN/A
12:25 am45 °FPartly cloudy.9 mph87%29.95 "Hg4 mi
11:55 pm
Thu, Apr 27
46 °FPassing clouds.14 mph76%29.95 "HgN/A
11:25 pm46 °FPassing clouds.12 mph76%29.95 "HgN/A
10:55 pm46 °FPassing clouds.13 mph71%29.95 "HgN/A
10:25 pm46 °FPassing clouds.13 mph71%29.98 "HgN/A
9:55 pm46 °FPassing clouds.12 mph66%29.98 "HgN/A
9:25 pm46 °FPassing clouds.13 mph66%29.98 "HgN/A
8:55 pm46 °FPartly sunny.14 mph66%29.98 "HgN/A
8:25 pm46 °FPartly sunny.16 mph62%29.98 "HgN/A
7:55 pm46 °FPartly sunny.15 mph62%29.98 "HgN/A
7:25 pm46 °FScattered clouds.16 mph62%29.98 "HgN/A
6:55 pm48 °FPassing clouds.15 mph58%29.98 "HgN/A
6:25 pm46 °FPassing clouds.15 mph62%29.98 "HgN/A
5:55 pm48 °FScattered clouds.16 mph54%29.98 "HgN/A
5:25 pm48 °FScattered clouds.18 mph58%29.98 "HgN/A
4:55 pm48 °FPassing clouds.18 mph58%30.01 "HgN/A
4:25 pm50 °FPassing clouds.16 mph54%30.01 "HgN/A
3:55 pm48 °FPassing clouds.17 mph58%30.01 "HgN/A
3:25 pm48 °FScattered clouds.15 mph62%30.01 "HgN/A
2:55 pm46 °FScattered showers. Passing clouds.13 mph71%30.01 "HgN/A
2:25 pm46 °FSprinkles. Passing clouds.16 mph66%30.01 "HgN/A
1:55 pm50 °FPassing clouds.12 mph58%30.01 "HgN/A
1:25 pm50 °FPassing clouds.13 mph58%30.01 "HgN/A
12:55 pm46 °FPassing clouds.16 mph66%30.01 "HgN/A
12:25 pm48 °FScattered showers. Passing clouds.14 mph58%30.01 "HgN/A
Weather by CustomWeather, © 2017

See weather overviewHow to use our weather pages